Date String (YYYY-MM-DD hh:mm:ss) UTC,Instrument flags,Ambient pressure (hPa),Sample flow (lpm),Bypass flow (lpm),Sample temperature (°C),Ambient temperature (°C),ASC tube jacket temperature (°C),LED temperature (°C),Box temperature (°C),Sample RH (%),Span deviation,Mass concentration (μg/m³),Mass concentration (μg/m³),Mass concentration (μg/m³)
DateTimeUTC,F1_M11,P_M11,Q1_M11,Q2_M11,T1_M11,T2_M11,T3_M11,T4_M11,T5_M11,U1_M11,ZSPAN_M11,X0_M11,X2_M11,X1_M11
2021-10-21 17:00:00,,0833.3,4.99,0.00,25.1,24.3,00.0,34.2,27.0,15.9,0000.0,0017.67,0004.49,0002.97
2021-10-21 17:01:00,,0833.3,4.99,0.00,25.1,24.4,00.0,34.2,27.0,16.5,0000.0,0015.99,0004.42,0002.92
2021-10-21 17:02:00,,0833.3,5.00,0.00,25.1,24.4,00.0,34.2,27.0,16.9,0000.0,0015.17,0004.31,0002.85
2021-10-21 17:03:00,,0833.3,5.01,0.00,25.2,24.4,00.0,34.2,27.0,17.6,0000.0,0014.56,0004.31,0002.88
2021-10-21 17:04:00,,0833.3,4.99,0.00,25.1,24.4,00.0,34.2,27.0,17.5,0000.0,0014.29,0004.34,0002.94
2021-10-21 17:05:00,,0833.3,5.01,0.00,25.1,24.3,00.0,34.2,27.0,16.9,0000.0,0015.13,0004.33,0002.98
2021-10-21 17:06:00,,0833.2,4.99,0.00,25.1,24.3,00.0,34.2,27.0,16.7,0000.0,0016.43,0004.38,0002.99
2021-10-21 17:07:00,,0833.2,5.00,0.00,25.2,24.4,00.0,34.2,27.0,16.6,0000.0,0017.04,0004.35,0002.94
2021-10-21 17:08:00,,0833.2,5.00,0.00,25.2,24.4,00.0,34.2,27.0,17.1,0000.0,0017.08,0004.33,0002.95
2021-10-21 17:09:00,,0833.2,5.00,0.00,25.2,24.4,00.0,34.2,27.0,17.3,0000.0,0016.72,0004.33,0003.01
2021-10-21 17:10:00,,0833.3,5.01,0.00,25.2,24.4,00.0,34.2,27.0,17.4,0000.0,0015.63,0004.34,0003.08
2021-10-21 17:11:00,,0833.2,4.99,0.00,25.2,24.4,00.0,34.2,27.1,17.4,0000.0,0015.11,0004.37,0003.13
2021-10-21 17:12:00,,0833.2,4.99,0.00,25.2,24.3,00.0,34.2,27.0,17.1,0000.0,0015.63,0004.34,0003.14
2021-10-21 17:13:00,,0833.1,5.01,0.00,25.1,24.3,00.0,34.2,27.0,17.0,0000.0,0016.43,0004.36,0003.16
2021-10-21 17:14:00,,0833.1,5.00,0.00,25.1,24.3,00.0,34.2,27.0,16.4,0000.0,0017.01,0004.37,0003.14
2021-10-21 17:15:00,,0833.2,5.00,0.00,25.1,24.3,00.0,34.2,27.0,16.5,0000.8,0017.32,0004.37,0003.12
2021-10-21 17:16:00,,0833.2,5.01,0.00,25.1,24.3,00.0,34.2,27.0,17.0,0000.0,0016.44,0004.36,0003.10
2021-10-21 17:17:00,,0833.2,4.99,0.00,25.1,24.3,00.0,34.2,27.0,17.3,0003.7,0015.44,0004.32,0003.11
2021-10-21 17:18:00,,0833.1,4.99,0.00,25.1,24.3,00.0,34.2,26.9,17.0,0003.8,0014.85,0004.29,0003.13
2021-10-21 17:19:00,,0833.2,5.01,0.00,25.1,24.3,00.0,34.2,26.9,16.9,0002.8,0014.89,0004.31,0003.15
2021-10-21 17:20:00,,0833.1,5.00,0.00,25.1,24.3,00.0,34.1,26.9,16.8,0003.1,0015.75,0004.34,0003.14
2021-10-21 17:21:00,,0833.2,5.00,0.00,25.1,24.3,00.0,34.1,26.9,16.7,0003.1,0016.33,0004.31,0003.13
2021-10-21 17:22:00,,0833.1,5.00,0.00,25.1,24.3,00.0,34.1,26.9,16.5,0003.0,0016.96,0004.29,0003.08
2021-10-21 17:23:00,,0833.2,5.00,0.00,25.1,24.3,00.0,34.1,26.9,16.7,0003.0,0016.88,0004.28,0003.06
2021-10-21 17:24:00,,0833.1,5.01,0.00,25.1,24.3,00.0,34.1,27.0,16.7,0003.1,0016.70,0004.29,0003.04
2021-10-21 17:25:00,,0833.2,5.00,0.00,25.1,24.4,00.0,34.2,27.0,16.5,0002.6,0016.20,0004.29,0003.00
2021-10-21 17:26:00,,0833.1,4.99,0.00,25.1,24.4,00.0,34.1,27.0,16.4,0001.4,0016.19,0004.28,0002.98
2021-10-21 17:27:00,,0833.2,5.01,0.00,25.2,24.4,00.0,34.1,27.0,16.6,0002.0,0017.69,0004.30,0002.96
2021-10-21 17:28:00,,0833.1,5.00,0.00,25.2,24.4,00.0,34.2,27.0,16.4,0003.1,0017.16,0004.29,0002.97
2021-10-21 17:29:00,,0833.1,4.99,0.00,25.2,24.4,00.0,34.2,27.0,16.3,0003.0,0016.57,0004.32,0002.98
2021-10-21 17:30:00,,0833.1,5.00,0.00,25.2,24.4,00.0,34.2,27.0,16.2,0003.3,0016.71,0004.29,0002.98
2021-10-21 17:31:00,,0833.1,5.00,0.00,25.1,24.4,00.0,34.2,27.0,16.3,0003.4,0015.64,0004.23,0002.99
2021-10-21 17:32:00,,0833.1,5.00,0.00,25.1,24.4,00.0,34.2,27.0,16.3,0003.6,0015.62,0004.22,0003.02
2021-10-21 17:33:00,,0833.1,4.99,0.00,25.1,24.3,00.0,34.2,27.0,16.4,0000.0,0014.94,0004.22,0003.06
2021-10-21 17:34:00,,0833.1,5.01,0.00,25.1,24.3,00.0,34.2,27.0,16.4,0000.0,0014.20,0004.22,0003.11
2021-10-21 17:35:00,,0833.1,5.00,0.00,25.1,24.3,00.0,34.2,27.0,16.5,0000.0,0015.16,0004.22,0003.14
2021-10-21 17:36:00,,0833.1,4.99,0.00,25.1,24.4,00.0,34.2,27.0,16.4,0003.1,0014.72,0004.17,0003.18
2021-10-21 17:37:00,,0833.1,5.01,0.00,25.1,24.4,00.0,34.2,27.0,16.3,0003.4,0014.59,0004.15,0003.22
2021-10-21 17:38:00,,0833.0,5.01,0.00,25.1,24.4,00.0,34.2,27.0,16.3,0002.6,0013.10,0004.16,0003.26
2021-10-21 17:39:00,,0833.1,5.00,0.00,25.1,24.4,00.0,34.2,27.0,16.3,0002.5,0012.95,0004.17,0003.28
2021-10-21 17:40:00,,0833.1,4.99,0.00,25.2,24.4,00.0,34.2,27.0,16.3,0001.1,0013.29,0004.21,0003.27
2021-10-21 17:41:00,,0833.1,5.00,0.00,25.2,24.4,00.0,34.2,27.0,16.3,0001.5,0013.69,0004.29,0003.27
2021-10-21 17:42:00,,0833.1,5.00,0.00,25.2,24.4,00.0,34.2,27.1,16.2,0002.0,0014.31,0004.31,0003.25
2021-10-21 17:43:00,,0833.1,5.01,0.00,25.2,24.5,00.0,34.2,27.1,16.3,0003.5,0013.18,0004.31,0003.24
2021-10-21 17:44:00,,0833.1,5.01,0.00,25.2,24.5,00.0,34.2,27.1,16.4,0003.3,0013.11,0004.30,0003.23
2021-10-21 17:45:00,,0833.0,5.01,0.00,25.2,24.5,00.0,34.2,27.1,16.2,0003.8,0013.88,0004.31,0003.24
2021-10-21 17:46:00,,0833.0,5.00,0.00,25.2,24.5,00.0,34.2,27.1,16.0,0004.1,0014.24,0004.32,0003.23
2021-10-21 17:47:00,,0833.0,5.00,0.00,25.2,24.5,00.0,34.2,27.1,16.0,0004.1,0014.03,0004.28,0003.21
2021-10-21 17:48:00,,0833.0,4.99,0.00,25.2,24.5,00.0,34.2,27.1,16.0,0003.4,0014.57,0004.30,0003.18
2021-10-21 17:49:00,,0833.1,4.99,0.00,25.2,24.5,00.0,34.2,27.1,16.3,0002.0,0014.46,0004.26,0003.17
2021-10-21 17:50:00,,0833.1,5.01,0.00,25.2,24.5,00.0,34.2,27.1,16.2,0001.4,0014.95,0004.30,0003.17
2021-10-21 17:51:00,,0833.1,4.98,0.00,25.2,24.5,00.0,34.2,27.1,16.4,0001.5,0014.99,0004.25,0003.18
2021-10-21 17:52:00,,0833.0,5.01,0.00,25.2,24.4,00.0,34.2,27.1,16.6,0001.1,0014.75,0004.22,0003.20
2021-10-21 17:53:00,,0833.0,5.00,0.00,25.2,24.4,00.0,34.2,27.0,16.5,0002.3,0014.67,0004.23,0003.22
2021-10-21 17:54:00,,0832.9,5.01,0.00,25.2,24.4,00.0,34.2,27.0,16.4,0003.0,0014.75,0004.23,0003.24
2021-10-21 17:55:00,,0832.9,4.99,0.00,25.2,24.4,00.0,34.2,27.0,16.5,0003.3,0015.35,0004.21,0003.26
2021-10-21 17:56:00,,0832.8,4.99,0.00,25.2,24.4,00.0,34.2,27.0,16.5,0003.9,0015.60,0004.16,0003.26
2021-10-21 17:57:00,,0832.9,5.00,0.00,25.1,24.4,00.0,34.2,27.0,16.6,0003.6,0014.51,0004.15,0003.27
2021-10-21 17:58:00,,0832.9,5.02,0.00,25.1,24.4,00.0,34.2,27.0,16.7,0003.6,0014.74,0004.21,0003.31
2021-10-21 17:59:00,,0832.8,5.00,0.00,25.1,24.3,00.0,34.2,26.9,16.7,0004.1,0015.61,0004.27,0003.35
